Time,TemperatureF,DewpointF,PressureIn,WindDirection,WindDirectionDegrees,WindSpeedMPH,WindSpeedGustMPH,Humidity,HourlyPrecipIn,Conditions,Clouds,dailyrainin,SoftwareType,DateUTC
2013-02-19 00:01:00,46.4,43.0,30.21,ENE,60,0.0,0.0,88,0.00,,,0.00,weatherlink.com 1.10,2013-02-19 05:01:00,
2013-02-19 00:16:00,46.4,44.0,30.21,ENE,60,0.0,0.0,90,0.00,,,0.00,weatherlink.com 1.10,2013-02-19 05:16:00,
2013-02-19 00:31:00,46.7,44.0,30.20,ENE,60,0.0,0.0,91,0.00,,,0.00,weatherlink.com 1.10,2013-02-19 05:31:00,
2013-02-19 00:46:00,46.8,44.0,30.20,ENE,60,0.0,0.0,91,0.00,,,0.00,weatherlink.com 1.10,2013-02-19 05:46:00,
2013-02-19 01:01:00,46.8,45.0,30.20,ENE,60,0.0,0.0,92,0.00,,,0.00,weatherlink.com 1.10,2013-02-19 06:01:00,
2013-02-19 01:16:00,46.7,45.0,30.20,ENE,60,0.0,0.0,92,0.00,,,0.00,weatherlink.com 1.10,2013-02-19 06:16:00,
2013-02-19 01:31:00,46.4,44.0,30.20,ENE,60,0.0,0.0,92,0.00,,,0.00,weatherlink.com 1.10,2013-02-19 06:31:00,
2013-02-19 01:46:00,46.1,44.0,30.20,ENE,60,0.0,0.0,92,0.00,,,0.00,weatherlink.com 1.10,2013-02-19 06:46:00,
2013-02-19 02:02:00,45.9,44.0,30.20,ENE,60,0.0,0.0,92,0.00,,,0.00,weatherlink.com 1.10,2013-02-19 07:02:00,
2013-02-19 02:16:00,45.8,44.0,30.20,ENE,60,0.0,0.0,92,0.00,,,0.00,weatherlink.com 1.10,2013-02-19 07:16:00,
2013-02-19 02:31:00,45.4,43.0,30.19,ENE,60,0.0,0.0,92,0.00,,,0.00,weatherlink.com 1.10,2013-02-19 07:31:00,
2013-02-19 02:46:00,45.1,43.0,30.18,ENE,60,0.0,0.0,92,0.00,,,0.00,weatherlink.com 1.10,2013-02-19 07:46:00,
2013-02-19 03:01:00,44.9,43.0,30.19,ENE,60,0.0,0.0,92,0.00,,,0.00,weatherlink.com 1.10,2013-02-19 08:01:00,
2013-02-19 03:16:00,45.0,43.0,30.18,ENE,60,0.0,0.0,93,0.00,,,0.00,weatherlink.com 1.10,2013-02-19 08:16:00,
2013-02-19 03:31:00,45.5,44.0,30.17,ENE,60,0.0,0.0,93,0.00,,,0.00,weatherlink.com 1.10,2013-02-19 08:31:00,
2013-02-19 03:46:00,46.0,44.0,30.18,ENE,60,0.0,0.0,94,0.00,,,0.00,weatherlink.com 1.10,2013-02-19 08:46:00,
2013-02-19 04:01:00,46.2,45.0,30.18,ENE,60,0.0,0.0,94,0.00,,,0.00,weatherlink.com 1.10,2013-02-19 09:01:00,
2013-02-19 04:16:00,46.6,45.0,30.17,ENE,60,0.0,0.0,94,0.00,,,0.00,weatherlink.com 1.10,2013-02-19 09:16:00,
2013-02-19 04:31:00,46.8,45.0,30.17,ENE,60,0.0,0.0,94,0.00,,,0.00,weatherlink.com 1.10,2013-02-19 09:31:00,
2013-02-19 04:46:00,46.9,45.0,30.17,ENE,60,0.0,0.0,94,0.00,,,0.00,weatherlink.com 1.10,2013-02-19 09:46:00,
2013-02-19 05:01:00,46.8,45.0,30.16,ENE,60,0.0,0.0,94,0.00,,,0.00,weatherlink.com 1.10,2013-02-19 10:01:00,
2013-02-19 05:16:00,46.5,45.0,30.16,ENE,60,0.0,0.0,94,0.00,,,0.00,weatherlink.com 1.10,2013-02-19 10:16:00,
2013-02-19 05:31:00,46.0,44.0,30.17,ENE,60,0.0,0.0,94,0.00,,,0.00,weatherlink.com 1.10,2013-02-19 10:31:00,
2013-02-19 05:46:00,45.6,44.0,30.17,ENE,60,0.0,0.0,94,0.00,,,0.00,weatherlink.com 1.10,2013-02-19 10:46:00,
2013-02-19 06:01:00,45.2,44.0,30.16,ENE,60,0.0,0.0,94,0.00,,,0.00,weatherlink.com 1.10,2013-02-19 11:01:00,
2013-02-19 06:16:00,45.2,44.0,30.16,ENE,60,0.0,0.0,94,0.00,,,0.00,weatherlink.com 1.10,2013-02-19 11:16:00,
2013-02-19 06:31:00,45.2,44.0,30.16,ENE,60,0.0,0.0,94,0.00,,,0.00,weatherlink.com 1.10,2013-02-19 11:31:00,
2013-02-19 06:46:00,45.0,43.0,30.16,ENE,60,0.0,0.0,94,0.00,,,0.00,weatherlink.com 1.10,2013-02-19 11:46:00,
2013-02-19 07:01:00,44.9,43.0,30.16,ENE,60,0.0,0.0,94,0.00,,,0.00,weatherlink.com 1.10,2013-02-19 12:01:00,
2013-02-19 07:16:00,44.8,43.0,30.16,ENE,60,0.0,0.0,94,0.00,,,0.00,weatherlink.com 1.10,2013-02-19 12:16:00,
2013-02-19 07:31:00,44.9,43.0,30.16,ENE,60,0.0,0.0,94,0.00,,,0.00,weatherlink.com 1.10,2013-02-19 12:31:00,
2013-02-19 07:46:00,45.3,44.0,30.17,ENE,60,0.0,0.0,95,0.00,,,0.00,weatherlink.com 1.10,2013-02-19 12:46:00,
2013-02-19 08:01:00,46.6,46.0,30.17,ENE,60,0.0,0.0,96,0.00,,,0.00,weatherlink.com 1.10,2013-02-19 13:01:00,
2013-02-19 08:16:00,52.8,52.0,30.17,ENE,60,0.0,0.0,97,0.00,,,0.00,weatherlink.com 1.10,2013-02-19 13:16:00,
2013-02-19 08:31:00,57.2,55.0,30.17,ESE,104,0.0,2.0,93,0.00,,,0.00,weatherlink.com 1.10,2013-02-19 13:31:00,
2013-02-19 08:46:00,60.2,56.0,30.18,ESE,117,0.0,2.0,86,0.00,,,0.00,weatherlink.com 1.10,2013-02-19 13:46:00,
2013-02-19 09:02:00,62.4,57.0,30.18,South,175,2.0,4.0,81,0.00,,,0.00,weatherlink.com 1.10,2013-02-19 14:02:00,
2013-02-19 09:17:00,64.2,57.0,30.18,South,186,1.0,4.0,78,0.00,,,0.00,weatherlink.com 1.10,2013-02-19 14:17:00,
2013-02-19 09:32:00,66.5,58.0,30.18,South,187,2.0,4.0,74,0.00,,,0.00,weatherlink.com 1.10,2013-02-19 14:32:00,
2013-02-19 09:47:00,68.5,57.0,30.18,SE,125,0.0,5.0,68,0.00,,,0.00,weatherlink.com 1.10,2013-02-19 14:47:00,
2013-02-19 10:02:00,70.1,57.0,30.18,SE,142,4.0,6.0,63,0.00,,,0.00,weatherlink.com 1.10,2013-02-19 15:02:00,
2013-02-19 10:17:00,71.1,57.0,30.18,SSE,161,1.0,8.0,61,0.00,,,0.00,weatherlink.com 1.10,2013-02-19 15:17:00,
2013-02-19 10:32:00,72.2,56.0,30.18,SSW,205,3.0,9.0,57,0.00,,,0.00,weatherlink.com 1.10,2013-02-19 15:32:00,
2013-02-19 10:47:00,72.6,56.0,30.18,WSW,250,4.0,7.0,56,0.00,,,0.00,weatherlink.com 1.10,2013-02-19 15:47:00,
2013-02-19 11:02:00,73.2,56.0,30.18,SSW,194,4.0,9.0,55,0.00,,,0.00,weatherlink.com 1.10,2013-02-19 16:02:00,
2013-02-19 11:17:00,73.5,57.0,30.18,South,179,2.0,10.0,56,0.00,,,0.00,weatherlink.com 1.10,2013-02-19 16:17:00,
2013-02-19 11:32:00,74.7,57.0,30.17,South,169,6.0,11.0,54,0.00,,,0.00,weatherlink.com 1.10,2013-02-19 16:32:00,
2013-02-19 11:47:00,75.0,56.0,30.17,SSW,196,3.0,13.0,52,0.00,,,0.00,weatherlink.com 1.10,2013-02-19 16:47:00,
2013-02-19 12:02:00,75.7,56.0,30.16,SW,228,6.0,13.0,51,0.00,,,0.00,weatherlink.com 1.10,2013-02-19 17:02:00,
2013-02-19 12:17:00,75.3,56.0,30.16,SSW,201,3.0,11.0,52,0.00,,,0.00,weatherlink.com 1.10,2013-02-19 17:17:00,
2013-02-19 12:32:00,76.9,57.0,30.15,SSW,194,4.0,13.0,50,0.00,,,0.00,weatherlink.com 1.10,2013-02-19 17:32:00,
2013-02-19 12:47:00,75.8,57.0,30.14,SW,224,4.0,12.0,52,0.00,,,0.00,weatherlink.com 1.10,2013-02-19 17:47:00,
2013-02-19 13:03:00,76.6,56.0,30.13,South,188,6.0,8.0,49,0.00,,,0.00,weatherlink.com 1.10,2013-02-19 18:03:00,
2013-02-19 13:18:00,77.2,57.0,30.12,SSW,212,2.0,14.0,50,0.00,,,0.00,weatherlink.com 1.10,2013-02-19 18:18:00,
2013-02-19 13:33:00,75.5,58.0,30.11,WNW,293,5.0,10.0,54,0.00,,,0.00,weatherlink.com 1.10,2013-02-19 18:33:00,
2013-02-19 13:48:00,76.6,57.0,30.11,SW,216,0.0,10.0,51,0.00,,,0.00,weatherlink.com 1.10,2013-02-19 18:48:00,
2013-02-19 14:03:00,78.4,56.0,30.10,SSW,204,4.0,12.0,46,0.00,,,0.00,weatherlink.com 1.10,2013-02-19 19:03:00,
2013-02-19 14:18:00,78.5,57.0,30.10,WSW,238,9.0,12.0,47,0.00,,,0.00,weatherlink.com 1.10,2013-02-19 19:18:00,
2013-02-19 14:33:00,77.0,56.0,30.09,SW,226,3.0,9.0,48,0.00,,,0.00,weatherlink.com 1.10,2013-02-19 19:33:00,
2013-02-19 14:48:00,77.1,55.0,30.09,West,260,5.0,10.0,46,0.00,,,0.00,weatherlink.com 1.10,2013-02-19 19:48:00,
2013-02-19 15:03:00,79.2,56.0,30.08,West,267,4.0,11.0,45,0.00,,,0.00,weatherlink.com 1.10,2013-02-19 20:03:00,
2013-02-19 15:18:00,78.3,57.0,30.07,West,259,3.0,9.0,48,0.00,,,0.00,weatherlink.com 1.10,2013-02-19 20:18:00,
2013-02-19 15:33:00,76.6,57.0,30.08,SSW,211,6.0,9.0,51,0.00,,,0.00,weatherlink.com 1.10,2013-02-19 20:33:00,
2013-02-19 15:48:00,77.0,56.0,30.07,SSW,198,4.0,11.0,48,0.00,,,0.00,weatherlink.com 1.10,2013-02-19 20:48:00,
2013-02-19 16:03:00,76.7,56.0,30.07,WSW,237,1.0,10.0,49,0.00,,,0.00,weatherlink.com 1.10,2013-02-19 21:03:00,
2013-02-19 16:18:00,78.0,57.0,30.06,West,276,3.0,11.0,48,0.00,,,0.00,weatherlink.com 1.10,2013-02-19 21:18:00,
2013-02-19 16:33:00,77.5,57.0,30.06,WSW,242,3.0,8.0,49,0.00,,,0.00,weatherlink.com 1.10,2013-02-19 21:33:00,
2013-02-19 16:48:00,76.9,55.0,30.06,SSW,211,7.0,11.0,47,0.00,,,0.00,weatherlink.com 1.10,2013-02-19 21:48:00,
2013-02-19 17:03:00,75.9,55.0,30.06,WSW,245,2.0,12.0,49,0.00,,,0.00,weatherlink.com 1.10,2013-02-19 22:03:00,
2013-02-19 17:18:00,75.0,55.0,30.07,WSW,249,4.0,10.0,50,0.00,,,0.00,weatherlink.com 1.10,2013-02-19 22:18:00,
2013-02-19 17:33:00,74.4,56.0,30.08,West,259,3.0,10.0,52,0.00,,,0.00,weatherlink.com 1.10,2013-02-19 22:33:00,
2013-02-19 17:48:00,73.7,55.0,30.08,WSW,240,2.0,6.0,53,0.00,,,0.00,weatherlink.com 1.10,2013-02-19 22:48:00,
2013-02-19 18:03:00,73.0,56.0,30.08,SW,227,4.0,4.0,55,0.00,,,0.00,weatherlink.com 1.10,2013-02-19 23:03:00,
2013-02-19 18:18:00,72.4,56.0,30.09,West,259,0.0,4.0,56,0.00,,,0.00,weatherlink.com 1.10,2013-02-19 23:18:00,
2013-02-19 18:33:00,71.2,56.0,30.09,West,261,0.0,5.0,58,0.00,,,0.00,weatherlink.com 1.10,2013-02-19 23:33:00,
2013-02-19 18:48:00,70.3,56.0,30.09,West,261,0.0,2.0,60,0.00,,,0.00,weatherlink.com 1.10,2013-02-19 23:48:00,
2013-02-19 19:03:00,69.3,56.0,30.09,West,261,0.0,1.0,62,0.00,,,0.00,weatherlink.com 1.10,2013-02-20 00:03:00,
2013-02-19 19:18:00,68.1,56.0,30.09,West,261,0.0,1.0,65,0.00,,,0.00,weatherlink.com 1.10,2013-02-20 00:18:00,
2013-02-19 19:33:00,67.1,56.0,30.09,West,261,0.0,1.0,67,0.00,,,0.00,weatherlink.com 1.10,2013-02-20 00:33:00,
2013-02-19 19:48:00,65.7,56.0,30.09,West,261,0.0,0.0,70,0.00,,,0.00,weatherlink.com 1.10,2013-02-20 00:48:00,
2013-02-19 20:03:00,64.3,55.0,30.09,West,261,0.0,0.0,72,0.00,,,0.00,weatherlink.com 1.10,2013-02-20 01:03:00,
2013-02-19 20:18:00,63.4,55.0,30.10,West,261,0.0,1.0,75,0.00,,,0.00,weatherlink.com 1.10,2013-02-20 01:18:00,
2013-02-19 20:33:00,63.2,55.0,30.10,West,261,0.0,1.0,75,0.00,,,0.00,weatherlink.com 1.10,2013-02-20 01:33:00,
2013-02-19 20:48:00,62.8,55.0,30.10,West,261,0.0,1.0,76,0.00,,,0.00,weatherlink.com 1.10,2013-02-20 01:48:00,
2013-02-19 21:03:00,62.3,55.0,30.11,West,261,0.0,1.0,78,0.00,,,0.00,weatherlink.com 1.10,2013-02-20 02:03:00,
2013-02-19 21:18:00,61.9,56.0,30.11,West,261,0.0,1.0,80,0.00,,,0.00,weatherlink.com 1.10,2013-02-20 02:18:00,
2013-02-19 21:33:00,61.4,55.0,30.11,West,261,0.0,0.0,79,0.00,,,0.00,weatherlink.com 1.10,2013-02-20 02:33:00,
2013-02-19 22:03:00,58.8,54.0,30.10,West,261,0.0,0.0,83,0.00,,,0.00,weatherlink.com 1.10,2013-02-20 03:03:00,
2013-02-19 22:18:00,58.1,53.0,30.10,West,261,0.0,0.0,83,0.00,,,0.00,weatherlink.com 1.10,2013-02-20 03:18:00,
2013-02-19 22:33:00,57.5,53.0,30.10,West,261,0.0,0.0,84,0.00,,,0.00,weatherlink.com 1.10,2013-02-20 03:33:00,
2013-02-19 22:48:00,56.3,52.0,30.10,West,261,0.0,0.0,85,0.00,,,0.00,weatherlink.com 1.10,2013-02-20 03:48:00,
2013-02-19 23:03:00,55.4,52.0,30.10,West,261,0.0,0.0,87,0.00,,,0.00,weatherlink.com 1.10,2013-02-20 04:03:00,
2013-02-19 23:18:00,54.8,51.0,30.10,West,261,0.0,0.0,88,0.00,,,0.00,weatherlink.com 1.10,2013-02-20 04:18:00,
2013-02-19 23:33:00,54.5,51.0,30.09,West,261,0.0,0.0,89,0.00,,,0.00,weatherlink.com 1.10,2013-02-20 04:33:00,
2013-02-19 23:48:00,54.3,52.0,30.09,West,261,0.0,1.0,90,0.00,,,0.00,weatherlink.com 1.10,2013-02-20 04:48:00,